Flock 4g-4

operational
NORAD ID: 62659 Int'l Des: 2025-009 Owner: PLAN Country: US Constellation: planet
LEOCIRCULARRETROGRADESSO

Flock 4g-4について

説明を読み込み中...

リアルタイム位置

3D地球を読み込み中...

次回通過

高度履歴

Altitude vs Time

uPlot chart will show altitude changes over time

軌道要素

1 62659U 25009BC 25341.20660934 .00014422 00000-0 59023-3 0 9994
2 62659 97.4138 59.1425 0001364 292.7588 67.3506 15.24425601107211
Epoch: Dec 7, 2025 • Age: 23 hours

現在のステータス

高度 498.8 km
速度 7.62 km/s
衛星直下点 38.75°N, 114.43°E
打ち上げ日 Jan 14, 2025
運用期間 0.8 years
タイプ earth observation

技術仕様

分類 Payload
質量 5.70 kg
乾燥質量 5.70 kg
総質量 5.70 kg
長さ 0.30 m
直径 0.10 m
スパン 0.30 m
形状 Box+2 pan
製造者 PLAN
バスタイプ Cubesat 3U
フェーズステータス In Orbit
所有者/国 PLAN/US

大規模コンステレーション

Loading constellations...